Time,TemperatureF,DewpointF,PressureIn,WindDirection,WindDirectionDegrees,WindSpeedMPH,WindSpeedGustMPH,Humidity,HourlyPrecipIn,Conditions,Clouds,dailyrainin,SoftwareType,DateUTC
2013-01-14 00:05:00,32.7,27.2,30.14,North,-999,0.0,0.0,80,0.00,,,0.00,pywws,2013-01-14 00:05:00,
2013-01-14 00:10:00,32.7,27.2,30.14,North,-999,0.0,0.0,80,0.00,,,0.00,pywws,2013-01-14 00:10:00,
2013-01-14 00:15:00,32.4,26.9,30.13,North,-999,0.0,0.0,80,0.00,,,0.00,pywws,2013-01-14 00:15:00,
2013-01-14 00:20:00,32.2,26.7,30.13,North,-999,0.0,0.0,80,0.00,,,0.00,pywws,2013-01-14 00:20:00,
2013-01-14 00:25:00,32.2,27.0,30.13,North,-999,0.0,0.0,81,0.00,,,0.00,pywws,2013-01-14 00:25:00,
2013-01-14 00:35:00,32.2,27.0,30.13,North,-999,0.0,0.0,81,0.00,,,0.00,pywws,2013-01-14 00:35:00,
2013-01-14 00:40:00,32.0,26.8,30.12,North,-999,0.0,0.0,81,0.00,,,0.00,pywws,2013-01-14 00:40:00,
2013-01-14 00:45:00,32.0,26.8,30.12,North,-999,0.0,0.0,81,0.00,,,0.00,pywws,2013-01-14 00:45:00,
2013-01-14 00:50:00,31.8,26.7,30.12,North,-999,0.0,0.0,81,0.00,,,0.00,pywws,2013-01-14 00:50:00,
2013-01-14 00:55:00,31.8,26.7,30.12,North,-999,0.0,0.0,81,0.00,,,0.00,pywws,2013-01-14 00:55:00,
2013-01-14 01:05:00,31.8,27.0,30.12,North,-999,0.0,0.0,82,0.00,,,0.00,pywws,2013-01-14 01:05:00,
2013-01-14 01:10:00,31.8,27.0,30.12,North,-999,0.0,0.0,82,0.00,,,0.00,pywws,2013-01-14 01:10:00,
2013-01-14 01:15:00,31.5,26.6,30.11,North,-999,0.0,0.0,82,0.00,,,0.00,pywws,2013-01-14 01:15:00,
2013-01-14 01:20:00,31.5,26.6,30.12,North,-999,0.0,0.0,82,0.00,,,0.00,pywws,2013-01-14 01:20:00,
2013-01-14 01:25:00,31.5,26.9,30.12,North,-999,0.0,0.0,83,0.00,,,0.00,pywws,2013-01-14 01:25:00,
2013-01-14 01:35:00,31.5,26.9,30.12,North,-999,0.0,0.0,83,0.00,,,0.00,pywws,2013-01-14 01:35:00,
2013-01-14 01:40:00,31.5,26.9,30.11,North,-999,0.0,0.0,83,0.00,,,0.00,pywws,2013-01-14 01:40:00,
2013-01-14 01:45:00,31.5,26.9,30.11,North,-999,0.0,0.0,83,0.00,,,0.00,pywws,2013-01-14 01:45:00,
2013-01-14 01:50:00,31.3,26.7,30.11,North,-999,0.0,0.0,83,0.00,,,0.00,pywws,2013-01-14 01:50:00,
2013-01-14 01:55:00,31.1,26.6,30.11,North,-999,0.0,0.0,83,0.00,,,0.00,pywws,2013-01-14 01:55:00,
2013-01-14 02:05:00,31.5,26.9,30.11,North,-999,0.0,0.0,83,0.00,,,0.00,pywws,2013-01-14 02:05:00,
2013-01-14 02:10:00,31.3,27.0,30.11,North,-999,0.0,0.0,84,0.00,,,0.00,pywws,2013-01-14 02:10:00,
2013-01-14 02:15:00,31.3,27.0,30.11,North,-999,0.0,0.0,84,0.00,,,0.00,pywws,2013-01-14 02:15:00,
2013-01-14 02:20:00,31.5,27.2,30.11,North,-999,0.0,0.0,84,0.00,,,0.00,pywws,2013-01-14 02:20:00,
2013-01-14 02:25:00,31.5,27.2,30.11,North,-999,0.0,0.0,84,0.00,,,0.00,pywws,2013-01-14 02:25:00,
2013-01-14 02:35:00,31.5,27.2,30.11,North,-999,0.0,0.0,84,0.00,,,0.00,pywws,2013-01-14 02:35:00,
2013-01-14 02:40:00,31.5,27.2,30.10,North,-999,0.0,0.0,84,0.00,,,0.00,pywws,2013-01-14 02:40:00,
2013-01-14 02:45:00,31.5,27.2,30.10,North,-999,0.0,0.7,84,0.00,,,0.00,pywws,2013-01-14 02:45:00,
2013-01-14 02:50:00,31.3,27.3,30.10,North,-999,0.0,0.0,85,0.00,,,0.00,pywws,2013-01-14 02:50:00,
2013-01-14 02:55:00,31.5,27.5,30.10,North,-999,0.0,0.0,85,0.00,,,0.00,pywws,2013-01-14 02:55:00,
2013-01-14 03:05:00,31.5,27.5,30.10,North,-999,0.0,0.7,85,0.00,,,0.00,pywws,2013-01-14 03:05:00,
2013-01-14 03:10:00,31.8,27.8,30.10,North,-999,0.0,0.0,85,0.00,,,0.00,pywws,2013-01-14 03:10:00,
2013-01-14 03:15:00,31.8,27.8,30.10,North,-999,0.0,0.0,85,0.00,,,0.00,pywws,2013-01-14 03:15:00,
2013-01-14 03:20:00,31.8,27.8,30.09,North,-999,0.0,0.0,85,0.00,,,0.00,pywws,2013-01-14 03:20:00,
2013-01-14 03:25:00,31.8,27.8,30.09,North,-999,0.0,0.0,85,0.00,,,0.00,pywws,2013-01-14 03:25:00,
2013-01-14 03:35:00,31.6,27.7,30.09,North,-999,0.0,0.0,85,0.00,,,0.00,pywws,2013-01-14 03:35:00,
2013-01-14 03:40:00,31.8,27.8,30.09,North,-999,0.0,0.0,85,0.00,,,0.00,pywws,2013-01-14 03:40:00,
2013-01-14 03:45:00,31.8,27.8,30.09,North,-999,0.0,0.0,85,0.00,,,0.00,pywws,2013-01-14 03:45:00,
2013-01-14 03:50:00,31.8,27.8,30.09,North,-999,0.0,0.0,85,0.00,,,0.00,pywws,2013-01-14 03:50:00,
2013-01-14 03:55:00,32.2,28.2,30.09,North,-999,0.0,0.0,85,0.00,,,0.00,pywws,2013-01-14 03:55:00,
2013-01-14 04:05:00,32.0,28.0,30.09,North,-999,0.0,0.7,85,0.00,,,0.00,pywws,2013-01-14 04:05:00,
2013-01-14 04:10:00,32.0,28.0,30.08,North,-999,0.0,0.0,85,0.00,,,0.00,pywws,2013-01-14 04:10:00,
2013-01-14 04:15:00,32.0,28.3,30.08,North,-999,0.0,0.0,86,0.00,,,0.00,pywws,2013-01-14 04:15:00,
2013-01-14 04:20:00,32.2,28.5,30.07,North,-999,0.0,0.7,86,0.00,,,0.00,pywws,2013-01-14 04:20:00,
2013-01-14 04:25:00,32.0,28.3,30.07,North,-999,0.0,0.0,86,0.00,,,0.00,pywws,2013-01-14 04:25:00,
2013-01-14 04:35:00,32.0,28.3,30.07,North,-999,0.0,0.0,86,0.00,,,0.00,pywws,2013-01-14 04:35:00,
2013-01-14 04:40:00,32.0,28.3,30.07,North,-999,0.0,0.0,86,0.00,,,0.00,pywws,2013-01-14 04:40:00,
2013-01-14 04:45:00,31.8,28.1,30.07,North,-999,0.0,0.7,86,0.00,,,0.00,pywws,2013-01-14 04:45:00,
2013-01-14 04:50:00,31.8,28.1,30.06,North,-999,0.0,0.0,86,0.00,,,0.00,pywws,2013-01-14 04:50:00,
2013-01-14 04:55:00,32.0,28.3,30.06,North,-999,0.0,0.0,86,0.00,,,0.00,pywws,2013-01-14 04:55:00,
2013-01-14 05:05:00,31.8,28.4,30.06,North,-999,0.0,0.0,87,0.00,,,0.00,pywws,2013-01-14 05:05:00,
2013-01-14 05:10:00,31.6,28.2,30.06,North,-999,0.0,0.0,87,0.00,,,0.00,pywws,2013-01-14 05:10:00,
2013-01-14 05:15:00,31.6,28.2,30.05,North,-999,0.0,0.0,87,0.00,,,0.00,pywws,2013-01-14 05:15:00,
2013-01-14 05:20:00,31.6,28.2,30.05,North,-999,0.0,0.7,87,0.00,,,0.00,pywws,2013-01-14 05:20:00,
2013-01-14 05:25:00,31.5,28.0,30.05,North,-999,0.0,0.7,87,0.00,,,0.00,pywws,2013-01-14 05:25:00,
2013-01-14 05:35:00,31.3,28.1,30.05,North,-999,0.0,0.0,88,0.00,,,0.00,pywws,2013-01-14 05:35:00,
2013-01-14 05:40:00,31.5,28.3,30.04,North,-999,0.0,0.0,88,0.00,,,0.00,pywws,2013-01-14 05:40:00,
2013-01-14 05:45:00,31.5,28.3,30.04,North,-999,0.0,0.7,88,0.00,,,0.00,pywws,2013-01-14 05:45:00,
2013-01-14 05:50:00,31.5,28.3,30.04,North,-999,0.0,0.7,88,0.00,,,0.00,pywws,2013-01-14 05:50:00,
2013-01-14 05:55:00,31.8,29.0,30.04,North,-999,0.0,1.6,89,0.00,,,0.00,pywws,2013-01-14 05:55:00,
2013-01-14 06:05:00,31.3,28.4,30.04,North,-999,0.0,0.0,89,0.00,,,0.00,pywws,2013-01-14 06:05:00,
2013-01-14 06:10:00,31.5,28.9,30.03,North,-999,0.0,0.7,90,0.00,,,0.00,pywws,2013-01-14 06:10:00,
2013-01-14 06:15:00,31.5,28.9,30.03,North,-999,0.0,0.7,90,0.00,,,0.00,pywws,2013-01-14 06:15:00,
2013-01-14 06:20:00,31.6,29.0,30.03,North,-999,0.0,0.0,90,0.00,,,0.00,pywws,2013-01-14 06:20:00,
2013-01-14 06:25:00,31.5,28.9,30.03,North,-999,0.0,0.0,90,0.00,,,0.00,pywws,2013-01-14 06:25:00,
2013-01-14 06:35:00,31.5,28.9,30.03,North,-999,0.0,0.0,90,0.00,,,0.00,pywws,2013-01-14 06:35:00,
2013-01-14 06:40:00,31.5,28.9,30.02,North,-999,0.0,0.7,90,0.00,,,0.00,pywws,2013-01-14 06:40:00,
2013-01-14 06:45:00,31.6,29.0,30.02,North,-999,0.0,0.7,90,0.00,,,0.00,pywws,2013-01-14 06:45:00,
2013-01-14 06:50:00,31.6,29.0,30.02,North,-999,0.0,0.7,90,0.00,,,0.00,pywws,2013-01-14 06:50:00,
2013-01-14 06:55:00,31.6,29.0,30.02,North,-999,0.0,0.7,90,0.00,,,0.00,pywws,2013-01-14 06:55:00,
2013-01-14 07:05:00,31.6,29.0,30.02,North,-999,0.0,0.0,90,0.00,,,0.00,pywws,2013-01-14 07:05:00,
2013-01-14 07:10:00,31.6,29.0,30.02,North,-999,0.0,0.7,90,0.00,,,0.00,pywws,2013-01-14 07:10:00,
2013-01-14 07:15:00,31.6,29.0,30.02,North,-999,0.0,0.7,90,0.00,,,0.00,pywws,2013-01-14 07:15:00,
2013-01-14 07:20:00,31.6,29.0,30.02,North,-999,0.0,0.7,90,0.00,,,0.00,pywws,2013-01-14 07:20:00,
2013-01-14 07:25:00,31.6,29.0,30.01,North,-999,0.0,1.6,90,0.00,,,0.00,pywws,2013-01-14 07:25:00,
2013-01-14 07:35:00,32.0,29.7,30.01,North,-999,0.0,0.7,91,0.00,,,0.00,pywws,2013-01-14 07:35:00,
2013-01-14 07:40:00,31.5,29.1,30.01,South,180,0.7,2.2,91,0.00,,,0.00,pywws,2013-01-14 07:40:00,
2013-01-14 07:45:00,31.6,29.0,30.01,North,-999,0.0,0.7,90,0.00,,,0.00,pywws,2013-01-14 07:45:00,
2013-01-14 07:50:00,31.8,29.2,30.01,North,-999,0.0,1.6,90,0.00,,,0.00,pywws,2013-01-14 07:50:00,
2013-01-14 07:55:00,31.6,29.0,30.01,North,-999,0.0,0.7,90,0.00,,,0.00,pywws,2013-01-14 07:55:00,
2013-01-14 08:05:00,31.6,29.0,30.01,North,-999,0.0,0.7,90,0.00,,,0.00,pywws,2013-01-14 08:05:00,
2013-01-14 08:10:00,31.6,29.0,30.01,North,-999,0.0,1.6,90,0.00,,,0.00,pywws,2013-01-14 08:10:00,
2013-01-14 08:15:00,31.6,29.0,30.01,South,180,0.7,1.6,90,0.00,,,0.00,pywws,2013-01-14 08:15:00,
2013-01-14 08:20:00,32.0,29.7,30.00,South,180,0.7,2.2,91,0.00,,,0.00,pywws,2013-01-14 08:20:00,
2013-01-14 08:25:00,31.6,29.3,30.00,SW,225,0.7,3.8,91,0.00,,,0.00,pywws,2013-01-14 08:25:00,
2013-01-14 08:35:00,32.0,29.7,29.99,North,-999,0.0,2.2,91,0.00,,,0.00,pywws,2013-01-14 08:35:00,
2013-01-14 08:40:00,32.0,29.7,30.00,North,-999,0.0,2.2,91,0.00,,,0.00,pywws,2013-01-14 08:40:00,
2013-01-14 08:45:00,32.2,29.6,29.99,North,-999,0.0,0.7,90,0.00,,,0.00,pywws,2013-01-14 08:45:00,
2013-01-14 08:50:00,32.4,29.8,29.99,West,270,0.7,2.2,90,0.00,,,0.00,pywws,2013-01-14 08:50:00,
2013-01-14 08:55:00,32.0,29.4,29.98,South,180,1.6,3.1,90,0.00,,,0.00,pywws,2013-01-14 08:55:00,
2013-01-14 09:05:00,32.4,29.8,29.98,South,180,0.7,1.6,90,0.00,,,0.00,pywws,2013-01-14 09:05:00,
2013-01-14 09:10:00,32.2,29.3,29.98,SE,135,0.7,4.5,89,0.00,,,0.00,pywws,2013-01-14 09:10:00,
2013-01-14 09:15:00,32.4,29.5,29.98,SW,225,0.7,3.1,89,0.00,,,0.00,pywws,2013-01-14 09:15:00,
2013-01-14 09:20:00,32.2,29.3,29.97,South,180,0.7,2.2,89,0.00,,,0.00,pywws,2013-01-14 09:20:00,
2013-01-14 09:25:00,32.2,29.0,29.97,West,270,0.7,3.1,88,0.00,,,0.00,pywws,2013-01-14 09:25:00,
2013-01-14 09:35:00,32.0,28.9,29.97,West,270,0.7,3.1,88,0.00,,,0.00,pywws,2013-01-14 09:35:00,
2013-01-14 09:40:00,32.4,29.2,29.96,North,-999,0.0,0.7,88,0.00,,,0.00,pywws,2013-01-14 09:40:00,
2013-01-14 09:45:00,32.5,29.4,29.96,North,-999,0.0,1.6,88,0.00,,,0.00,pywws,2013-01-14 09:45:00,
2013-01-14 09:50:00,32.5,29.4,29.96,North,-999,0.0,1.6,88,0.00,,,0.00,pywws,2013-01-14 09:50:00,
2013-01-14 09:55:00,32.5,29.4,29.96,WNW,292,2.2,6.0,88,0.00,,,0.00,pywws,2013-01-14 09:55:00,
2013-01-14 10:05:00,32.4,29.2,29.95,South,180,1.6,3.1,88,0.00,,,0.00,pywws,2013-01-14 10:05:00,
2013-01-14 10:10:00,32.7,29.3,29.95,SSW,202,0.7,3.1,87,0.00,,,0.00,pywws,2013-01-14 10:10:00,
2013-01-14 10:15:00,32.7,29.3,29.95,South,180,0.7,2.2,87,0.00,,,0.00,pywws,2013-01-14 10:15:00,
2013-01-14 10:20:00,32.7,29.3,29.95,WSW,248,0.7,3.1,87,0.00,,,0.00,pywws,2013-01-14 10:20:00,
2013-01-14 10:25:00,33.1,29.6,29.95,South,180,0.7,3.1,87,0.00,,,0.00,pywws,2013-01-14 10:25:00,
2013-01-14 10:35:00,32.9,29.5,29.94,North,-999,0.0,0.7,87,0.00,,,0.00,pywws,2013-01-14 10:35:00,
2013-01-14 10:40:00,33.1,29.6,29.94,South,180,0.7,3.1,87,0.00,,,0.00,pywws,2013-01-14 10:40:00,
2013-01-14 10:45:00,33.3,29.8,29.93,NW,315,0.7,3.1,87,0.00,,,0.00,pywws,2013-01-14 10:45:00,
2013-01-14 10:50:00,33.3,29.8,29.93,SE,135,0.7,3.8,87,0.00,,,0.00,pywws,2013-01-14 10:50:00,
2013-01-14 10:55:00,33.4,30.0,29.92,North,-999,0.0,2.2,87,0.00,,,0.00,pywws,2013-01-14 10:55:00,
2013-01-14 11:05:00,33.4,30.0,29.92,North,-999,0.0,1.6,87,0.00,,,0.00,pywws,2013-01-14 11:05:00,
2013-01-14 11:10:00,33.6,30.2,29.91,North,-999,0.0,1.6,87,0.00,,,0.00,pywws,2013-01-14 11:10:00,
2013-01-14 11:15:00,33.8,30.3,29.91,SW,225,0.7,1.6,87,0.00,,,0.00,pywws,2013-01-14 11:15:00,
2013-01-14 11:20:00,33.8,30.3,29.91,South,180,0.7,3.1,87,0.00,,,0.00,pywws,2013-01-14 11:20:00,
2013-01-14 11:25:00,33.8,30.3,29.91,North,0,0.7,2.2,87,0.00,,,0.00,pywws,2013-01-14 11:25:00,
2013-01-14 11:35:00,33.4,30.3,29.90,SW,225,0.7,1.6,88,0.00,,,0.00,pywws,2013-01-14 11:35:00,
2013-01-14 11:40:00,34.0,30.8,29.89,North,-999,0.0,0.7,88,0.00,,,0.00,pywws,2013-01-14 11:40:00,
2013-01-14 11:45:00,33.6,30.7,29.89,North,-999,0.0,1.6,89,0.00,,,0.00,pywws,2013-01-14 11:45:00,
2013-01-14 11:50:00,33.6,30.7,29.89,South,180,0.7,3.1,89,0.00,,,0.00,pywws,2013-01-14 11:50:00,
2013-01-14 11:55:00,33.8,30.9,29.88,North,-999,0.0,1.6,89,0.00,,,0.00,pywws,2013-01-14 11:55:00,
2013-01-14 12:05:00,33.6,30.7,29.88,North,-999,0.0,1.6,89,0.00,,,0.00,pywws,2013-01-14 12:05:00,
2013-01-14 12:10:00,33.8,31.2,29.87,North,-999,0.0,0.7,90,0.00,,,0.00,pywws,2013-01-14 12:10:00,
2013-01-14 12:15:00,33.4,30.8,29.87,North,-999,0.0,1.6,90,0.00,,,0.00,pywws,2013-01-14 12:15:00,
2013-01-14 12:20:00,33.4,30.8,29.86,North,-999,0.0,0.0,90,0.00,,,0.00,pywws,2013-01-14 12:20:00,
2013-01-14 12:25:00,33.4,30.8,29.85,SW,225,0.7,2.2,90,0.00,,,0.00,pywws,2013-01-14 12:25:00,
2013-01-14 12:35:00,33.4,31.1,29.85,North,-999,0.0,1.6,91,0.00,,,0.00,pywws,2013-01-14 12:35:00,
2013-01-14 12:40:00,33.4,31.1,29.84,North,-999,0.0,1.6,91,0.00,,,0.00,pywws,2013-01-14 12:40:00,
2013-01-14 12:45:00,33.6,31.3,29.84,North,-999,0.0,1.6,91,0.00,,,0.00,pywws,2013-01-14 12:45:00,
2013-01-14 12:50:00,33.4,31.1,29.84,North,-999,0.0,2.2,91,0.00,,,0.00,pywws,2013-01-14 12:50:00,
2013-01-14 12:55:00,33.4,31.1,29.83,North,-999,0.0,0.7,91,0.00,,,0.00,pywws,2013-01-14 12:55:00,
2013-01-14 13:05:00,33.4,31.1,29.83,North,-999,0.0,1.6,91,0.00,,,0.00,pywws,2013-01-14 13:05:00,
2013-01-14 13:10:00,33.4,31.4,29.82,North,-999,0.0,2.2,92,0.00,,,0.00,pywws,2013-01-14 13:10:00,
2013-01-14 13:15:00,33.3,31.2,29.82,North,-999,0.0,0.7,92,0.00,,,0.00,pywws,2013-01-14 13:15:00,
2013-01-14 13:20:00,33.3,31.2,29.82,North,-999,0.0,1.6,92,0.00,,,0.00,pywws,2013-01-14 13:20:00,
2013-01-14 13:25:00,33.4,31.4,29.81,North,-999,0.0,0.0,92,0.00,,,0.00,pywws,2013-01-14 13:25:00,
2013-01-14 13:35:00,33.4,31.4,29.80,North,-999,0.0,0.0,92,0.00,,,0.00,pywws,2013-01-14 13:35:00,
2013-01-14 13:40:00,33.1,31.0,29.80,North,-999,0.0,0.0,92,0.00,,,0.00,pywws,2013-01-14 13:40:00,
2013-01-14 13:45:00,33.3,31.2,29.80,North,-999,0.0,0.0,92,0.00,,,0.00,pywws,2013-01-14 13:45:00,
2013-01-14 13:50:00,33.3,31.2,29.79,North,-999,0.0,0.0,92,0.00,,,0.00,pywws,2013-01-14 13:50:00,
2013-01-14 13:55:00,33.4,31.4,29.79,North,-999,0.0,0.0,92,0.00,,,0.00,pywws,2013-01-14 13:55:00,
2013-01-14 14:05:00,33.4,31.6,29.79,North,-999,0.0,0.0,93,0.00,,,0.00,pywws,2013-01-14 14:05:00,
2013-01-14 14:10:00,33.4,31.6,29.79,North,-999,0.0,0.0,93,0.00,,,0.00,pywws,2013-01-14 14:10:00,
2013-01-14 14:15:00,33.3,31.5,29.78,North,-999,0.0,0.0,93,0.00,,,0.00,pywws,2013-01-14 14:15:00,
2013-01-14 14:20:00,33.1,31.3,29.78,North,-999,0.0,0.0,93,0.00,,,0.00,pywws,2013-01-14 14:20:00,
2013-01-14 14:25:00,33.3,31.5,29.78,North,-999,0.0,0.0,93,0.00,,,0.00,pywws,2013-01-14 14:25:00,
2013-01-14 14:35:00,33.3,31.5,29.78,North,-999,0.0,0.0,93,0.00,,,0.00,pywws,2013-01-14 14:35:00,
2013-01-14 14:40:00,33.3,31.5,29.78,North,-999,0.0,0.0,93,0.00,,,0.00,pywws,2013-01-14 14:40:00,
2013-01-14 14:45:00,33.4,31.6,29.77,North,-999,0.0,0.0,93,0.00,,,0.00,pywws,2013-01-14 14:45:00,
2013-01-14 14:50:00,33.1,31.3,29.77,North,-999,0.0,0.0,93,0.00,,,0.00,pywws,2013-01-14 14:50:00,
2013-01-14 14:55:00,33.3,31.5,29.77,North,-999,0.0,0.0,93,0.00,,,0.00,pywws,2013-01-14 14:55:00,
2013-01-14 15:05:00,33.3,31.5,29.77,North,-999,0.0,0.0,93,0.00,,,0.00,pywws,2013-01-14 15:05:00,
2013-01-14 15:10:00,33.3,31.5,29.76,North,-999,0.0,0.0,93,0.00,,,0.00,pywws,2013-01-14 15:10:00,
2013-01-14 15:15:00,33.4,31.6,29.76,North,-999,0.0,0.0,93,0.00,,,0.00,pywws,2013-01-14 15:15:00,
2013-01-14 15:20:00,33.3,31.5,29.75,North,-999,0.0,0.0,93,0.00,,,0.00,pywws,2013-01-14 15:20:00,
2013-01-14 15:25:00,33.6,31.8,29.75,North,-999,0.0,0.0,93,0.00,,,0.00,pywws,2013-01-14 15:25:00,
2013-01-14 15:36:00,33.6,31.8,29.75,North,-999,0.0,0.0,93,0.00,,,0.00,pywws,2013-01-14 15:36:00,
2013-01-14 15:40:00,33.6,32.1,29.74,North,-999,0.0,0.0,94,0.00,,,0.00,pywws,2013-01-14 15:40:00,
2013-01-14 15:45:00,33.8,32.0,29.74,North,-999,0.0,0.0,93,0.00,,,0.00,pywws,2013-01-14 15:45:00,
2013-01-14 15:50:00,33.8,32.3,29.74,North,-999,0.0,0.7,94,0.00,,,0.00,pywws,2013-01-14 15:50:00,
2013-01-14 15:55:00,33.8,32.3,29.73,North,-999,0.0,0.0,94,0.00,,,0.00,pywws,2013-01-14 15:55:00,
2013-01-14 16:05:00,33.8,32.3,29.73,North,-999,0.0,0.7,94,0.00,,,0.00,pywws,2013-01-14 16:05:00,
2013-01-14 16:10:00,34.0,32.4,29.73,North,-999,0.0,0.7,94,0.00,,,0.00,pywws,2013-01-14 16:10:00,
2013-01-14 16:15:00,34.0,32.4,29.73,North,-999,0.0,0.0,94,0.00,,,0.00,pywws,2013-01-14 16:15:00,
2013-01-14 16:20:00,33.8,32.3,29.73,North,-999,0.0,0.0,94,0.00,,,0.00,pywws,2013-01-14 16:20:00,
2013-01-14 16:25:00,33.6,32.1,29.73,North,-999,0.0,0.0,94,0.00,,,0.00,pywws,2013-01-14 16:25:00,
2013-01-14 16:35:00,33.3,31.7,29.73,North,-999,0.0,0.0,94,0.00,,,0.00,pywws,2013-01-14 16:35:00,
2013-01-14 16:40:00,33.1,31.5,29.72,North,-999,0.0,0.0,94,0.00,,,0.00,pywws,2013-01-14 16:40:00,
2013-01-14 16:45:00,33.1,31.5,29.72,North,-999,0.0,0.0,94,0.00,,,0.00,pywws,2013-01-14 16:45:00,
2013-01-14 16:50:00,33.1,31.5,29.72,North,-999,0.0,0.0,94,0.00,,,0.00,pywws,2013-01-14 16:50:00,
2013-01-14 16:55:00,33.1,31.5,29.72,North,-999,0.0,0.0,94,0.00,,,0.00,pywws,2013-01-14 16:55:00,
2013-01-14 17:05:00,32.7,31.2,29.72,North,-999,0.0,0.0,94,0.00,,,0.00,pywws,2013-01-14 17:05:00,
2013-01-14 17:10:00,32.5,31.0,29.72,North,-999,0.0,0.0,94,0.00,,,0.00,pywws,2013-01-14 17:10:00,
2013-01-14 17:15:00,32.5,31.0,29.72,North,-999,0.0,0.0,94,0.00,,,0.00,pywws,2013-01-14 17:15:00,
2013-01-14 17:20:00,32.7,31.2,29.71,North,-999,0.0,0.0,94,0.01,,,0.01,pywws,2013-01-14 17:20:00,
2013-01-14 17:25:00,32.9,31.4,29.71,North,-999,0.0,0.0,94,0.01,,,0.01,pywws,2013-01-14 17:25:00,
2013-01-14 17:35:00,33.3,31.7,29.71,North,-999,0.0,0.0,94,0.01,,,0.01,pywws,2013-01-14 17:35:00,
2013-01-14 17:40:00,33.4,31.9,29.70,North,-999,0.0,0.0,94,0.01,,,0.01,pywws,2013-01-14 17:40:00,
2013-01-14 17:45:00,33.6,32.1,29.70,North,-999,0.0,0.0,94,0.01,,,0.01,pywws,2013-01-14 17:45:00,
2013-01-14 17:50:00,33.6,32.1,29.70,North,-999,0.0,0.0,94,0.01,,,0.01,pywws,2013-01-14 17:50:00,
2013-01-14 17:55:00,33.8,32.3,29.70,North,-999,0.0,0.0,94,0.01,,,0.01,pywws,2013-01-14 17:55:00,
2013-01-14 18:05:00,33.6,32.1,29.70,North,-999,0.0,0.0,94,0.01,,,0.01,pywws,2013-01-14 18:05:00,
2013-01-14 18:10:00,34.0,32.4,29.70,North,-999,0.0,2.2,94,0.01,,,0.01,pywws,2013-01-14 18:10:00,
2013-01-14 18:15:00,34.0,32.7,29.69,North,-999,0.0,3.1,95,0.01,,,0.01,pywws,2013-01-14 18:15:00,
2013-01-14 18:20:00,34.3,33.1,29.70,North,-999,0.0,1.6,95,0.00,,,0.01,pywws,2013-01-14 18:20:00,
2013-01-14 18:25:00,34.3,33.1,29.70,North,-999,0.0,3.8,95,0.00,,,0.01,pywws,2013-01-14 18:25:00,
2013-01-14 18:35:00,34.5,33.2,29.70,North,-999,0.0,0.7,95,0.00,,,0.01,pywws,2013-01-14 18:35:00,
2013-01-14 18:40:00,35.2,34.0,29.70,West,270,1.6,3.8,95,0.00,,,0.01,pywws,2013-01-14 18:40:00,
2013-01-14 18:45:00,35.6,34.3,29.69,North,0,2.2,4.5,95,0.00,,,0.01,pywws,2013-01-14 18:45:00,
2013-01-14 18:50:00,35.6,34.3,29.69,West,270,1.6,3.8,95,0.00,,,0.01,pywws,2013-01-14 18:50:00,
2013-01-14 18:55:00,35.6,34.3,29.69,NW,315,2.2,6.0,95,0.00,,,0.01,pywws,2013-01-14 18:55:00,
2013-01-14 19:06:00,36.0,34.7,29.70,NW,315,1.6,4.5,95,0.00,,,0.01,pywws,2013-01-14 19:06:00,
2013-01-14 19:10:00,35.8,34.2,29.69,SW,225,0.7,3.1,94,0.01,,,0.02,pywws,2013-01-14 19:10:00,
2013-01-14 19:15:00,36.0,34.1,29.69,NW,315,0.7,3.8,93,0.01,,,0.02,pywws,2013-01-14 19:15:00,
2013-01-14 19:20:00,36.0,34.1,29.68,NW,315,0.7,3.8,93,0.01,,,0.02,pywws,2013-01-14 19:20:00,
2013-01-14 19:25:00,36.0,34.1,29.68,North,-999,0.0,1.6,93,0.01,,,0.02,pywws,2013-01-14 19:25:00,
2013-01-14 19:35:00,36.0,34.1,29.68,NW,315,0.7,3.1,93,0.02,,,0.04,pywws,2013-01-14 19:35:00,
2013-01-14 19:40:00,36.0,33.9,29.69,North,0,1.6,4.5,92,0.02,,,0.04,pywws,2013-01-14 19:40:00,
2013-01-14 19:45:00,36.1,34.0,29.68,North,0,0.7,6.0,92,0.02,,,0.04,pywws,2013-01-14 19:45:00,
2013-01-14 19:50:00,36.3,34.2,29.68,NW,315,1.6,4.5,92,0.02,,,0.04,pywws,2013-01-14 19:50:00,
2013-01-14 19:55:00,36.0,33.6,29.68,NW,315,0.7,2.2,91,0.04,,,0.05,pywws,2013-01-14 19:55:00,
2013-01-14 20:05:00,36.0,33.6,29.68,West,270,0.7,3.1,91,0.04,,,0.05,pywws,2013-01-14 20:05:00,
2013-01-14 20:10:00,35.8,33.4,29.67,NW,315,0.7,2.2,91,0.02,,,0.05,pywws,2013-01-14 20:10:00,
2013-01-14 20:15:00,34.2,31.8,29.68,NW,315,0.7,2.2,91,0.04,,,0.06,pywws,2013-01-14 20:15:00,
2013-01-14 20:20:00,35.6,33.2,29.68,West,270,0.7,3.1,91,0.04,,,0.06,pywws,2013-01-14 20:20:00,
2013-01-14 20:25:00,35.4,33.3,29.67,NNE,22,0.7,2.2,92,0.04,,,0.06,pywws,2013-01-14 20:25:00,
2013-01-14 20:35:00,35.6,33.2,29.68,North,-999,0.0,2.2,91,0.02,,,0.06,pywws,2013-01-14 20:35:00,
2013-01-14 20:40:00,35.1,32.7,29.68,NE,45,0.7,2.2,91,0.04,,,0.07,pywws,2013-01-14 20:40:00,
2013-01-14 20:45:00,35.1,32.7,29.67,North,-999,0.0,0.7,91,0.04,,,0.07,pywws,2013-01-14 20:45:00,
2013-01-14 20:50:00,34.9,32.5,29.68,North,-999,0.0,0.0,91,0.04,,,0.07,pywws,2013-01-14 20:50:00,
2013-01-14 20:55:00,34.3,32.0,29.68,North,-999,0.0,2.2,91,0.02,,,0.07,pywws,2013-01-14 20:55:00,
2013-01-14 21:05:00,34.3,32.3,29.68,North,-999,0.0,2.2,92,0.02,,,0.07,pywws,2013-01-14 21:05:00,
2013-01-14 21:09:00,34.2,32.1,29.67,North,-999,0.0,0.7,92,0.02,,,0.07,pywws,2013-01-14 21:09:00,
2013-01-14 21:14:00,34.3,32.3,29.68,NE,45,0.7,2.2,92,0.01,,,0.07,pywws,2013-01-14 21:14:00,
2013-01-14 21:19:00,34.5,32.4,29.68,North,0,2.2,5.4,92,0.01,,,0.07,pywws,2013-01-14 21:19:00,
2013-01-14 21:24:00,34.5,32.7,29.67,West,270,1.6,3.1,93,0.01,,,0.07,pywws,2013-01-14 21:24:00,
2013-01-14 21:35:00,34.3,32.3,29.67,South,180,0.7,4.5,92,0.01,,,0.07,pywws,2013-01-14 21:35:00,
2013-01-14 21:40:00,34.3,32.3,29.67,North,-999,0.0,0.0,92,0.00,,,0.07,pywws,2013-01-14 21:40:00,
2013-01-14 21:45:00,34.3,32.3,29.67,North,-999,0.0,0.7,92,0.00,,,0.07,pywws,2013-01-14 21:45:00,
2013-01-14 21:50:00,34.2,32.1,29.67,North,0,0.7,3.1,92,0.00,,,0.07,pywws,2013-01-14 21:50:00,
2013-01-14 21:55:00,34.2,32.1,29.67,NW,315,0.7,2.2,92,0.00,,,0.07,pywws,2013-01-14 21:55:00,
2013-01-14 22:05:00,34.2,32.1,29.67,North,-999,0.0,1.6,92,0.00,,,0.07,pywws,2013-01-14 22:05:00,
2013-01-14 22:10:00,34.0,31.9,29.67,NE,45,0.7,2.2,92,0.00,,,0.07,pywws,2013-01-14 22:10:00,
2013-01-14 22:15:00,33.8,31.7,29.68,WSW,248,1.6,3.8,92,0.00,,,0.07,pywws,2013-01-14 22:15:00,
2013-01-14 22:20:00,33.8,31.7,29.67,North,-999,0.0,2.2,92,0.00,,,0.07,pywws,2013-01-14 22:20:00,
2013-01-14 22:25:00,33.6,31.5,29.67,North,-999,0.0,1.6,92,0.00,,,0.07,pywws,2013-01-14 22:25:00,
2013-01-14 22:35:00,33.6,31.5,29.68,North,-999,0.0,0.7,92,0.00,,,0.07,pywws,2013-01-14 22:35:00,
2013-01-14 22:40:00,34.0,31.9,29.68,NW,315,2.2,6.9,92,0.00,,,0.07,pywws,2013-01-14 22:40:00,
2013-01-14 22:45:00,34.3,32.3,29.67,North,-999,0.0,1.6,92,0.00,,,0.07,pywws,2013-01-14 22:45:00,
2013-01-14 22:50:00,34.2,32.1,29.67,North,0,1.6,3.1,92,0.00,,,0.07,pywws,2013-01-14 22:50:00,
2013-01-14 22:55:00,34.3,32.3,29.67,WNW,292,1.6,3.8,92,0.00,,,0.07,pywws,2013-01-14 22:55:00,
2013-01-14 23:05:00,34.2,31.8,29.67,WNW,292,1.6,8.3,91,0.00,,,0.07,pywws,2013-01-14 23:05:00,
2013-01-14 23:10:00,34.3,32.0,29.67,West,270,3.1,6.0,91,0.00,,,0.07,pywws,2013-01-14 23:10:00,
2013-01-14 23:15:00,34.2,31.5,29.67,South,180,1.6,4.5,90,0.00,,,0.07,pywws,2013-01-14 23:15:00,
2013-01-14 23:20:00,34.3,31.7,29.67,SSW,202,3.1,8.3,90,0.00,,,0.07,pywws,2013-01-14 23:20:00,
2013-01-14 23:25:00,34.3,31.7,29.67,West,270,2.2,4.5,90,0.00,,,0.07,pywws,2013-01-14 23:25:00,
2013-01-14 23:35:00,34.3,31.7,29.66,NW,315,2.2,6.0,90,0.00,,,0.07,pywws,2013-01-14 23:35:00,
2013-01-14 23:40:00,34.0,31.4,29.66,North,-999,0.0,3.8,90,0.00,,,0.07,pywws,2013-01-14 23:40:00,
2013-01-14 23:45:00,34.0,31.4,29.66,West,270,0.7,5.4,90,0.00,,,0.07,pywws,2013-01-14 23:45:00,
2013-01-14 23:50:00,33.8,31.2,29.67,North,0,2.2,4.5,90,0.00,,,0.07,pywws,2013-01-14 23:50:00,
2013-01-14 23:55:00,33.8,31.2,29.67,West,270,2.2,9.2,90,0.00,,,0.07,pywws,2013-01-14 23:55:00,